Location: Plainartige
(45.6866°N, 1.7993°E)
Time: 03:14:32
(UTC+00:00)

RS-15 - Pass Details

Date: 06 July 2022
Orbit: 1881 x 2163 km, 64.8° (Epoch: 10 August)

Event Time Altitude Azimuth Distance (km) Brightness Sun altitude
Rises 20:05:19 0° 311° (NW) 5,682 13.7 -3.8°
Reaches altitude 10° 20:09:14 10° 319° (NW) 4,688 11.8 -4.3°
Maximum altitude 20:20:43 40° 27° (NNE) 2,892 9.1 -5.8°
Drops below altitude 10° 20:31:56 10° 95° (E) 4,603 9.5 -7.3°
Enters shadow 20:35:37 - 103° (ESE) 5,551 9.9 -7.7°
